fechar
X Fechar
X Fechar

X Fechar
foto
Salvar nos Favoritos

X Fechar
foto
Clique e saiba mais
Clique e saiba mais
Clique e saiba mais
Clique e saiba mais
Clique e saiba mais
Clique e saiba mais
Clique e saiba mais

América Sports

Capacete Companhia

RM - Motocross Racing

Edgers Racing

RX Graphics

JPS Racing

Ohlins

DLua Racing

Toro Sports

Clique e saiba mais

> Competição > Mundial de Motocross

6ª etapa - Kegums - Letônia - Classificatórias
Publicado em: 30/04/2016

Tim Gajser e Jeffrey Herlings vencem as classificatórias na Letônia
Redação MotoX.com.br: Lucidio Arruda - Fotos: Max Zanzani / Youthstream


Tim Gajser venceu a terceira classificatória consecutiva

O MXGP da Letônia começou com tempo bom e temperatura agradável. O solo arenoso mas não tão macio quanto as pistas holandesas ou belgas proporciona boa tração e favorece as disputas por posições. Pela terceira etapa consecutiva, o estreante na MXGP Tim Gajser foi o vencedor da classificatória. Pela MX2 o domínio absoluto de Jeffrey Herlings permanece: ele recebeu a bandeirada em primeiro durante todas as classificatórias (e também corridas) nessa temporada.

MXGP


Antonio Cairoli

A MXGP começou com uma confusão na reta de largada que encerrou a corrida do russo Evgeny Bobryshev prematuramente. Tommy Searle também caiu no incidente, mas retornou para completar na 24ª posição.

Antonio Cairoli, com uma largada perfeita, saiu na frente seguido por Tim Gajser e Kevin Strijbos. O belga da Suzuki seguiu os dois ponteiros por boa parte da bateria de 12 voltas, mas depois da metade perdeu contato e passou a sofrer pressão da dupla da Yamaha formada por Jeremy van Horebeek e Romain Febvre.


Jeremy van Horebeek

Depois de cozinhar o italiano por nove voltas, Gajser conseguiu a liderança a três voltas do final. Pela terceira posição Horebeek superou Strijbos a duas voltas da bandeirada enquanto Febvre acalmou o ritmo e se contentou com o quinto lugar.

Max Nagl foi o sétimo seguido de Ben Townley que volta após duas etapas de molho por causa de uma forte virose. Shaun Simpson, Clement Desalle e Glen Coldenhoff completaram os dez primeiros.

MX2


Largada MX2 - Herlings (84) tomou a liderança de Seewer (91) na segunda volta

Jeremy Seewer largou na frente e conseguiu uma volta na liderança antes de Jeffrey Herlings assumir o controle. Com o holandês na frente as atenções ficaram na disputa pelo segundo posto entre o suíço e o piloto da Letônia Pauls Jonass. Jonass completou a ultrapassagem na quinta volta e assim os três primeiros foram definidos.

O britânico Max Anstie ficou com a quarta posição enquanto o francês Dylan Ferrandis, que ficou três GPs de fora por conta do acidente na Tailândia, chegou em quinto após uma prova de recuperação. Mesmo assim completou a corrida quase um minuto depois de Herlings.


Pauls Jonass

A volta do campeonato à Europa permite o surgimento de novas faces, como do holandês Calvin Vlaanderen que completou numa notável sexta posição mesmo largando fora dos dez primeiros. O número de inscritos na etapa cresceu para 34 na MXGP e 36 na MX2, um flagrante contraste com a etapa mexicana que contou com cerca de 20 pilotos em cada classe.

Na Letônia temos também três categorias do Europeu - 125cc, 250cc e 300 2T - o que significa que a pista deve dificultar bastante com a formação de buracos e bumps neste domingo.


Jeremy Seewer

As categorias principais largam amanhã entre 7 e 11h e a cronometragem e resultados ao vivo podem ser acompanhados no link https://www.motox.com.br/liveresults/mundialmx/

Vídeos





Resultados

P # MXGP Nat. Bike Time V Dif. Gap M.V. in lap Speed
1 243 Gajser, Tim SLO Hon 24:20.229 12 0:00.000 0:00.000 1:53.539 7 48.8
2 222 Cairoli, Antonio ITA KTM 24:21.862 12 0:01.633 0:01.633 1:53.453 5 48.8
3 89 Van Horebeek, Jeremy BEL Yam 24:24.375 12 0:04.146 0:02.513 1:53.405 2 48.8
4 22 Strijbos, Kevin BEL Suz 24:25.531 12 0:05.302 0:01.156 1:53.232 1 48.9
5 461 Febvre, Romain FRA Yam 24:31.508 12 0:11.279 0:05.977 1:53.184 4 48.9
6 12 Nagl, Maximilian GER Hus 24:40.250 12 0:20.021 0:08.742 1:52.406 5 49.3
7 8 Townley, Ben NZL Suz 24:54.736 12 0:34.507 0:14.486 1:54.279 2 48.5
8 24 Simpson, Shaun GBR KTM 24:55.954 12 0:35.725 0:01.218 1:55.217 2 48.1
9 25 Desalle, Clement BEL Kaw 24:56.731 12 0:36.502 0:00.777 1:55.534 3 47.9
10 259 Coldenhoff, Glenn NED KTM 25:00.568 12 0:40.339 0:03.837 1:55.479 3 48
11 23 Charlier, Christophe FRA Hus 25:03.350 12 0:43.121 0:02.782 1:55.630 4 47.9
12 92 Guillod, Valentin SUI Yam 25:10.576 12 0:50.347 0:07.226 1:55.961 6 47.8
13 32 Potisek, Milko FRA Yam 25:24.625 12 1:04.396 0:14.049 1:56.915 2 47.4
14 45 Nicholls, Jake GBR Hus 25:28.722 12 1:08.493 0:04.097 1:57.168 5 47.3
15 685 Lenoir, Steven FRA Hon 25:35.866 12 1:15.637 0:07.144 1:58.314 3 46.8
16 17 Butron, Jose ESP KTM 25:39.457 12 1:19.228 0:03.591 1:59.137 7 46.5
17 999 Goncalves, Rui POR Hus 25:41.074 12 1:20.845 0:01.617 1:59.292 7 46.4
18 600 Ivanovs, Davis LAT Yam 25:42.533 12 1:22.304 0:01.459 1:59.184 2 46.5
19 151 Kullas, Harri EST KTM 25:43.903 12 1:23.674 0:01.370 1:59.601 10 46.3
20 50 Macuks, Toms LAT Kaw 25:45.243 12 1:25.014 0:01.340 1:59.271 6 46.4
21 920 Valentin, Ander ESP Kaw 25:46.011 12 1:25.782 0:00.768 1:57.730 2 47
22 11 Bengtsson, Filip SWE Suz 25:49.270 12 1:29.041 0:03.259 1:55.646 2 47.9
23 7 Leok, Tanel EST KTM 25:50.308 12 1:30.079 0:01.038 1:56.616 2 47.5
24 100 Searle, Tommy GBR Kaw 25:51.898 12 1:31.669 0:01.590 1:55.634 5 47.9
25 400 Yamamoto, Kei JPN Hon 25:53.194 12 1:32.965 0:01.296 1:59.407 2 46.4
26 430 Malin, Valtteri FIN KTM 25:53.914 12 1:33.685 0:00.720 2:00.047 3 46.1
27 156 Heidecke, Angus GER KTM 26:00.785 12 1:40.556 0:06.871 2:00.462 8 46
28 149 Ullrich, Dennis GER KTM 26:01.233 12 1:41.004 0:00.448 2:00.137 11 46.1
29 621 Lusbo, Andero EST Yam 26:11.771 12 1:51.542 0:10.538 2:00.607 4 45.9
30 177 Jasikonis, Arminas LTU Kaw 26:30.470 12 2:10.241 0:18.699 1:58.836 1 46.6
31 300 Golovkin, Viacheslav RUS KTM 24:22.910 11 1 lap 1 lap 2:01.860 2 45.4
32 31 Snow, Alex GBR Yam 24:35.649 11 1 lap 0:12.739 2:01.523 4 45.6
33 63 Klein Kromhof, Ceriel NED Hon 7:35.655 3 9 laps 8 laps 1:58.856 3 46.6
34 777 Bobryshev, Evgeny RUS Hon 0:00.000 -1 13 laps 4 laps 0:00.000   0

P. # MX2 Nat. Bike Time laps Dif. Gap. M.V. in lap Speed
1 84 Herlings, Jeffrey NED KTM 23:57.717 12 0:00.000 0:00.000 1:51.523 6 49.7
2 41 Jonass, Pauls LAT KTM 24:16.064 12 0:18.347 0:18.347 1:52.739 2 49.1
3 91 Seewer, Jeremy SUI Suz 24:17.473 12 0:19.756 0:01.409 1:52.364 1 49.3
4 99 Anstie, Max GBR Hus 24:26.035 12 0:28.318 0:08.562 1:53.181 3 48.9
5 4 Ferrandis, Dylan FRA Kaw 24:52.149 12 0:54.432 0:26.114 1:53.677 2 48.7
6 10 Vlaanderen, Calvin NED KTM 24:56.388 12 0:58.671 0:04.239 1:54.275 3 48.5
7 152 Petrov, Petar BUL Kaw 24:57.576 12 0:59.859 0:01.188 1:55.608 4 47.9
8 172 Van doninck, Brent BEL Yam 24:57.921 12 1:00.204 0:00.345 1:55.225 3 48.1
9 6 Paturel, Benoit FRA Yam 25:02.417 12 1:04.700 0:04.496 1:54.333 1 48.4
10 747 Cervellin, Michele ITA Hon 25:07.607 12 1:09.890 0:05.190 1:55.386 4 48
11 189 Bogers, Brian NED KTM 25:08.757 12 1:11.040 0:01.150 1:53.802 1 48.7
12 95 Justs, Roberts LAT KTM 25:10.807 12 1:13.090 0:02.050 1:54.101 3 48.5
13 71 Graulus, Damon BEL Hon 25:12.746 12 1:15.029 0:01.939 1:56.180 5 47.7
14 321 Bernardini, Samuele ITA TM 25:16.616 12 1:18.899 0:03.870 1:54.582 1 48.3
15 132 Kutsar, Karel EST KTM 25:17.465 12 1:19.748 0:00.849 1:56.503 4 47.5
16 161 Östlund, Alvin SWE Yam 25:18.225 12 1:20.508 0:00.760 1:56.363 6 47.6
17 88 van der Vlist, Freek NED Kaw 25:19.910 12 1:22.193 0:01.685 1:57.090 4 47.3
18 338 Herbreteau, David FRA Hon 25:20.448 12 1:22.731 0:00.538 1:56.324 5 47.6
19 18 Brylyakov, Vsevolod RUS Kaw 25:24.646 12 1:26.929 0:04.198 1:56.340 10 47.6
20 426 Mewse, Conrad GBR Hus 25:37.803 12 1:40.086 0:13.157 1:57.650 2 47.1
21 15 Bonini, Davide ITA Hus 25:41.539 12 1:43.822 0:03.736 1:57.684 2 47.1
22 29 Jacobi, Henry GER Hon 25:45.730 12 1:48.013 0:04.191 1:58.878 10 46.6
23 66 Larranaga Olano, Iker ESP KTM 25:47.109 12 1:49.392 0:01.379 1:58.163 7 46.9
24 40 Zecchina, Simone ITA Yam 25:48.928 12 1:51.211 0:01.819 1:58.647 2 46.7
25 97 Ivanov, Maykal Grisha BUL KTM 24:04.465 11 1 lap 1 lap 2:00.603 2 45.9
26 142 Petrov, Ivan BUL KTM 24:05.264 11 1 lap 0:00.799 2:00.744 1 45.9
27 75 Roosiorg, Hardi EST KTM 24:05.925 11 1 lap 0:00.661 2:00.600 4 45.9
28 43 De Bortoli, Davide ITA Hus 24:21.194 11 1 lap 0:15.269 1:58.084 2 46.9
29 14 Valente, Christopher SUI KTM 24:22.597 11 1 lap 0:01.403 2:00.776 5 45.9
30 79 Corneth, Jaap NED Yam 24:31.596 11 1 lap 0:08.999 1:59.700 2 46.3
31 174 Smith, Alfie GBR Yam 25:23.445 11 1 lap 0:51.849 2:00.951 2 45.8
32 490 Mataro Vilar, Francesc ESP Yam 25:36.320 11 1 lap 0:12.875 2:01.191 5 45.7
33 251 Getteman, Jens BEL KTM 16:43.498 7 5 laps 4 laps 1:59.794 4 46.2
34 101 Zaragoza, Jorge ESP Hon 10:17.637 4 8 laps 3 laps 1:57.881 1 47
35 46 Pootjes, Davy NED KTM 5:28.120 2 10 laps 2 laps 1:55.727 1 47.9
36 223 Tropepe, Giuseppe ITA Hus 1:34.886 0 12 laps 2 laps 0:00.000   0










Vídeos MotoX Connect



Acompanhe o MotoX no Facebook

Curso MotoX Ric Raspa
Brasil Racing
JPS Racing

© 2000 - 2017 MotoX MX1 Internet